アトラス彗星

C/2021 G2 ( ATLAS )

English version
Home page
Updated on June 4, 2024

---------------------------------------------------------------------

・ プロフィール

発見日 2021年4月11日
発見光度 19.3等
発見者 Asteroid Terrestrial-Impact Last Alert System (ATLAS) search program

・ 写真集

・ 軌道要素

Epoch 2024 Mar. 31.0 TT = JDT 2460400.5
T 2024 Sept.  9.30572 TT                                Rudenko
q   4.9823031            (2000.0)            P               Q
z  +0.0000084      Peri.  343.29029     -0.84709776     +0.20067120
 +/-0.0000006      Node   221.09415     -0.36017153     -0.89765604
e   0.9999581      Incl.   48.47457     -0.39077085     +0.39235788
>From 949 observations 2021 Sept. 29-2024 Feb. 25, mean residual 0".3.

・ 星図

・ 光度変化

        m1 = 3.5 + 5 logΔ + 10.0 log r

---------------------------------------------------------------------

軌道要素はM.P.E.C. 2024-D126に掲載されたものです。
星図はステラナビゲータ Ver.10 (アストロアーツ) で作成したものです。
光度グラフはComet for Windowsで作成したものです。

---------------------------------------------------------------------

Copyright(C) Seiichi Yoshida (comet@aerith.net). All rights reserved.